Location: Dittelbrunn
(50.0738°N, 10.2196°E)
Time: 21:52:06
(UTC+00:00)

Cosmos 2227 - Pass Details

Date: 18 September 2020
Orbit: 836 x 859 km, 71.0° (Epoch: 30 October)

Event Time Altitude Azimuth Distance (km) Brightness Sun altitude
Rises 17:57:57 0° 196° (SSW) 3,419 7.4 -6.0°
Reaches altitude 10° 18:00:25 10° 193° (SSW) 2,485 6.7 -6.4°
Maximum altitude 18:06:03 63° 114° (ESE) 951 4.2 -7.3°
Drops below altitude 10° 18:11:41 10° 34° (NE) 2,489 6.4 -8.2°
Sets 18:14:10 0° 32° (NNE) 3,425 7.2 -8.6°
